User: anonymous   Login
Location: Unspecified
(0.0000°N, 0.0000°E)
Time: 04:51:16
(UTC+00:00)
Language:

CLOUDSAT - Orbit

View from above orbital plane
View from above orbital plane
View from above satellite
View from above satellite

Ground track
Ground track

The orbit data is extracted from the following two-line orbital elements,

1 29107U 06016A   17204.55216906 +.00000058 +00000-0 +22988-4 0  9996
2 29107 098.2046 147.9731 0001023 057.2217 302.9080 14.57130196597563
Epoch (UTC): 23 July 2017 13:15:07
Eccentricity: 0.0001023
inclination: 98.2046°
perigee height: 702 km
apogee height: 703 km
right ascension of ascending node: 147.9731°
argument of perigee: 57.2217°
revolutions per day: 14.57130196
mean anomaly at epoch: 302.9080°
orbit number at epoch: 59756

The dashed part of the orbit path shows where the satellite is in the earth's shadow,  

DLR